Participated 6 times
Between 1987 and 1994
Gert-Jan Theunisse, Holland
Tour de France 2026 starts from Barcelona, Spain in

Stats and Facts from
Tour de France.

2026   2025   2024   2023  2022  2021  2020  2019   2018  2017   2016   2015  2014  2013   2012   2011  2010   2009   2008   2007   2006   2005   2004   2003   2002   2001   2000   1999   1998   1997  1996   1995   1994   1993   1992  1991   1990   1989   1988   1987   1986   1985   1984   1983  1982  1981   1980   1979  1978  1977   1976  1975  1974  1973   1972   1971   1970  1969   1968   1967   1966   1965  1964  1963   1962   1961   1960   1959   1958   1957  1956   1955   1954   1953   1952  1951  1950  1949   1948  1947  1939   1938   1937   1936   1935   1934   1933  1932   1931   1930  1929   1928   1927   1926  1925  1924  1923   1922   1921   1920   1919  1914   1913   1912   1911   1910  1909   1908   1907   1906  1905  1904   1903 

Tourstats
Sitemap

After stage 21 - 2025:
 16451 starters.
  5463 different riders.
  689 teams.
  2398 stages.
  470 restdays.
  466506.50 km.
  5925 abandoned riders.

Click map for 2016 route.
Facts from Tour de France 2016
  |   Stages.  |   Stage winners.  |   Days in jerseys.  |   Teams.  |   All riders.  |   All riders by age.  |   All riders from.  |  

  |   Rookies.  |   Withdrawls.  |   Average speed.  |   GC.  |   Polka  |   Green  |   White  |   Summits. (In tour)  |   Miscellaneous.  |  

Stage 17 on July 20th. 2016
Pick a stage:  1  2  3  4  5  6  7  8  9  10  11  12  13  14  15  16  17  18  19  20  21  

After stage 17:    Chris Froome    Rafał Majka    Peter Sagan    Adam Yates  
  BernFinhaut-Emosson | Dist: 184.00km. | Winner: Ilnur Zakarin

Podium
3  Côte de Saanenmöser Rafał Majkaafter72.50 km.

3  Col des Mosses Rafał Majkaafter105.00 km.

1  Col de la Forclaz Rafał Majkaafter166.50 km.

HC  Finhaut-Emosson Ilnur Zakarinafter184.50 km.


Average speed for all riders in stage:  36,262 km./hr.

1
 Ilnur Zakarin  Katusha04h 36' 33"=39,920  km/h

2
 Jarlinson Pantano  IAM Cycling04h 37' 28"+  00:00:55 =39,789  km/h

3
 Rafał Majka  Tinkoff04h 37' 59"+  00:01:26 =39,715  km/h

4  Kristijan Ðurasek  Lampre-Merida04h 38' 05"+  00:01:32 =39,700  km/h

5  Brice Feillu  Fortuneo-Vital Concept04h 39' 06"+  00:02:33 =39,556  km/h

6  Thomas  Voeckler  Direct Energie04h 39' 19"+  00:02:46 =39,525  km/h

7  Domenico Pozzovivo  AG2R La Mondiale04h 39' 23"+  00:02:50 =39,516  km/h

8  Stef Clement  IAM Cycling04h 39' 30"+  00:02:57 =39,499  km/h

9  Steve Morabito  FDJ04h 41' 11"+  00:04:38 =39,263  km/h

10  Richie Porte  BMC04h 44' 32"+  00:07:59 =38,800  km/h

11  Chris Froome  Sky Procycling04h 44' 32"+  00:07:59 =38,800  km/h

12  Adam Yates  ORICA BikeExchange04h 44' 40"+  00:08:07 =38,782  km/h

13  Romain Bardet  AG2R La Mondiale04h 44' 43"+  00:08:10 =38,775  km/h

14  Fabio Aru  Astana Pro Team04h 44' 51"+  00:08:18 =38,757  km/h

15  Louis Meintjes  Lampre-Merida04h 44' 51"+  00:08:18 =38,757  km/h

16  Nairo Quintana  Movistar04h 45' 00"+  00:08:27 =38,737  km/h

17  Wout Poels  Sky Procycling04h 45' 12"+  00:08:39 =38,710  km/h

18  Bauke Mollema  Trek-Segafredo04h 45' 12"+  00:08:39 =38,710  km/h

19  Dan Martin  Etixx-Quick Step04h 45' 19"+  00:08:46 =38,694  km/h

20  Mikel Nieve  Sky Procycling04h 45' 30"+  00:08:57 =38,669  km/h

21  Tanel Kangert  Astana Pro Team04h 45' 44"+  00:09:11 =38,637  km/h

22  Joaquin Rodriguez  Katusha04h 45' 44"+  00:09:11 =38,637  km/h

23  Roman Kreuziger  Tinkoff04h 46' 11"+  00:09:38 =38,577  km/h

24  Sébastien Reichenbach  FDJ04h 46' 11"+  00:09:38 =38,577  km/h

25  Alejandro Valverde  Movistar04h 46' 34"+  00:10:01 =38,525  km/h

26  Sergio Henao  Sky Procycling04h 46' 48"+  00:10:15 =38,494  km/h

27  Greg Van Avermaet  BMC04h 47' 25"+  00:10:52 =38,411  km/h

28  Daniel Moreno  Movistar04h 47' 49"+  00:11:16 =38,358  km/h

29  Serge Pauwels  Dimension Data04h 48' 48"+  00:12:15 =38,227  km/h

30  Alexey Lutsenko  Astana Pro Team04h 48' 48"+  00:12:15 =38,227  km/h

31  Haimar  Zubeldía  Trek-Segafredo04h 49' 17"+  00:12:44 =38,163  km/h

32  Diego Rosa  Astana Pro Team04h 50' 27"+  00:13:54 =38,010  km/h

33  Tony Gallopin  Lotto Soudal04h 50' 49"+  00:14:16 =37,962  km/h

34  Emanuel Buchmann  Bora-Argon 1804h 51' 53"+  00:15:20 =37,823  km/h

35  Pierre Rolland  Cannondale Pro Cycling04h 51' 53"+  00:15:20 =37,823  km/h

36  Alexis Vuillermoz  AG2R La Mondiale04h 51' 53"+  00:15:20 =37,823  km/h

37  Geraint Thomas  Sky Procycling04h 52' 00"+  00:15:27 =37,808  km/h

38  Mikel Landa  Sky Procycling04h 53' 13"+  00:16:40 =37,651  km/h

39  Vincenzo Nibali  Astana Pro Team04h 53' 13"+  00:16:40 =37,651  km/h

40  Damiano Caruso  BMC04h 53' 13"+  00:16:40 =37,651  km/h

41  Peter Stetina  Trek-Segafredo04h 53' 44"+  00:17:11 =37,585  km/h

42  Thomas De Gendt  Lotto Soudal04h 57' 07"+  00:20:34 =37,157  km/h

43  Anthony Roux  FDJ04h 57' 24"+  00:20:51 =37,122  km/h

44  Fränk Schleck  Trek-Segafredo04h 57' 29"+  00:20:56 =37,111  km/h

45  Jan Polanc  Lampre-Merida04h 57' 29"+  00:20:56 =37,111  km/h

46  Jakob Fuglsang  Astana Pro Team04h 58' 20"+  00:21:47 =37,006  km/h

47  Warren Barguil  Giant-Alpecin04h 58' 22"+  00:21:49 =37,001  km/h

48  Alberto Losada  Katusha04h 58' 38"+  00:22:05 =36,968  km/h

49  Luis Angel Mate  Cofidis – Solutions Crédits05h 00' 14"+  00:23:41 =36,771  km/h

50  Jérôme Coppel  IAM Cycling05h 01' 38"+  00:25:05 =36,601  km/h

51  Winner Anacona  Movistar05h 02' 03"+  00:25:30 =36,550  km/h

52  Amaël Moinard  BMC05h 02' 30"+  00:25:57 =36,496  km/h

53  Julian Alaphilippe  Etixx-Quick Step05h 02' 30"+  00:25:57 =36,496  km/h

54  Wilco Kelderman  Lotto NL-Jumbo05h 02' 48"+  00:26:15 =36,460  km/h

55  Timo Roosen  Lotto NL-Jumbo05h 02' 48"+  00:26:15 =36,460  km/h

56  Reto Hollenstein  IAM Cycling05h 02' 48"+  00:26:15 =36,460  km/h

57  Anthony Delaplace  Fortuneo-Vital Concept05h 02' 48"+  00:26:15 =36,460  km/h

58  Ben Gastauer  AG2R La Mondiale05h 02' 48"+  00:26:15 =36,460  km/h

59  Daryl Impey  ORICA BikeExchange05h 02' 48"+  00:26:15 =36,460  km/h

60  Bartosz Huzarski  Bora-Argon 1805h 02' 48"+  00:26:15 =36,460  km/h

61  Paolo Tiralongo  Astana Pro Team05h 02' 48"+  00:26:15 =36,460  km/h

62  Adam Hansen  Lotto Soudal05h 02' 48"+  00:26:15 =36,460  km/h

63  Michael Valgren  Tinkoff05h 02' 48"+  00:26:15 =36,460  km/h

64  Tejay Van Garderen  BMC05h 02' 48"+  00:26:15 =36,460  km/h

65  Jan Bárta  Bora-Argon 1805h 02' 48"+  00:26:15 =36,460  km/h

66  Luis León Sánchez  Astana Pro Team05h 02' 48"+  00:26:15 =36,460  km/h

67  Yukiya  Arashiro  Lampre-Merida05h 02' 48"+  00:26:15 =36,460  km/h

68  Jasper Stuyven  Trek-Segafredo05h 03' 42"+  00:27:09 =36,352  km/h

69  Laurens Ten Dam  Giant-Alpecin05h 04' 32"+  00:27:59 =36,252  km/h

70  Peter Sagan  Tinkoff05h 05' 36"+  00:29:03 =36,126  km/h

71  Oliver Naesen  IAM Cycling05h 06' 59"+  00:30:26 =35,963  km/h

72  Andriy Grivko  Astana Pro Team05h 06' 59"+  00:30:26 =35,963  km/h

73  Martin Elmiger  IAM Cycling05h 06' 59"+  00:30:26 =35,963  km/h

74  Dylan Van Baarle  Cannondale Pro Cycling05h 06' 59"+  00:30:26 =35,963  km/h

75  Daniel Teklehaimanot  Dimension Data05h 06' 59"+  00:30:26 =35,963  km/h

76  Mikaël Cherel  AG2R La Mondiale05h 06' 59"+  00:30:26 =35,963  km/h

77  Chris Anker Sørensen  Fortuneo-Vital Concept05h 06' 59"+  00:30:26 =35,963  km/h

78  Tom Dumoulin  Giant-Alpecin05h 06' 59"+  00:30:26 =35,963  km/h

79  Arthur Vichot  FDJ05h 06' 59"+  00:30:26 =35,963  km/h

80  Markel Irizar  Trek-Segafredo05h 06' 59"+  00:30:26 =35,963  km/h

81  Jérémy Roy  FDJ05h 06' 59"+  00:30:26 =35,963  km/h

82  Michael Schär  BMC05h 06' 59"+  00:30:26 =35,963  km/h

83  Luka Pibernik  Lampre-Merida05h 06' 59"+  00:30:26 =35,963  km/h

84  Andreas Schillinger  Bora-Argon 1805h 06' 59"+  00:30:26 =35,963  km/h

85  Brent Bookwalter  BMC05h 06' 59"+  00:30:26 =35,963  km/h

86  Fabrice Jeandesboz  Direct Energie05h 06' 59"+  00:30:26 =35,963  km/h

87  Daniel Navarro  Cofidis – Solutions Crédits05h 06' 59"+  00:30:26 =35,963  km/h

88  Roy Curvers  Giant-Alpecin05h 06' 59"+  00:30:26 =35,963  km/h

89  Imanol Erviti  Movistar05h 06' 59"+  00:30:26 =35,963  km/h

90  Gregory Rast  Trek-Segafredo05h 06' 59"+  00:30:26 =35,963  km/h

91  Nelson Oliveira  Movistar05h 06' 59"+  00:30:26 =35,963  km/h

92  Alex Howes  Cannondale Pro Cycling05h 06' 59"+  00:30:26 =35,963  km/h

93  Cyril Gautier  AG2R La Mondiale05h 06' 59"+  00:30:26 =35,963  km/h

94  Ion Izagirre  Movistar05h 06' 59"+  00:30:26 =35,963  km/h

95  Jan Bakelants  AG2R La Mondiale05h 06' 59"+  00:30:26 =35,963  km/h

96  Sylvain Chavanel  Direct Energie05h 06' 59"+  00:30:26 =35,963  km/h

97  Michael Albasini  ORICA BikeExchange05h 06' 59"+  00:30:26 =35,963  km/h

98  Reinardt Janse Van Rensburg  Dimension Data05h 06' 59"+  00:30:26 =35,963  km/h

99  Georg Preidler  Giant-Alpecin05h 06' 59"+  00:30:26 =35,963  km/h

100  Cesare Benedetti  Bora-Argon 1805h 06' 59"+  00:30:26 =35,963  km/h

101  Robert Kišerlovski  Tinkoff05h 06' 59"+  00:30:26 =35,963  km/h

102  Paul Martens  Lotto NL-Jumbo05h 06' 59"+  00:30:26 =35,963  km/h

103  Christopher Juul Jensen  ORICA BikeExchange05h 06' 59"+  00:30:26 =35,963  km/h

104  Patrick Konrad  Bora-Argon 1805h 06' 59"+  00:30:26 =35,963  km/h

105  William  Bonnet  FDJ05h 07' 17"+  00:30:44 =35,928  km/h

106  Simon Geschke  Giant-Alpecin05h 07' 20"+  00:30:47 =35,922  km/h

107  Vasil Kiryienka  Sky Procycling05h 07' 31"+  00:30:58 =35,900  km/h

108  Matteo Tosatto  Tinkoff05h 07' 31"+  00:30:58 =35,900  km/h

109  Tom-Jelte Slagter  Cannondale Pro Cycling05h 07' 31"+  00:30:58 =35,900  km/h

110  Fabian Cancellara  Trek-Segafredo05h 08' 04"+  00:31:31 =35,836  km/h

111  Ángel Vicioso  Katusha05h 08' 04"+  00:31:31 =35,836  km/h

112  Florian Vachon  Fortuneo-Vital Concept05h 08' 04"+  00:31:31 =35,836  km/h

113  Albert Timmer  Giant-Alpecin05h 08' 08"+  00:31:35 =35,829  km/h

114  Ramon Sinkeldam  Giant-Alpecin05h 08' 08"+  00:31:35 =35,829  km/h

115  Edvald Boasson Hagen  Dimension Data05h 08' 29"+  00:31:56 =35,788  km/h

116  Bert-Jan Lindeman  Lotto NL-Jumbo05h 08' 51"+  00:32:18 =35,746  km/h

117  George Bennett  Lotto NL-Jumbo05h 08' 56"+  00:32:23 =35,736  km/h

118  Marcus Burghardt  BMC05h 09' 20"+  00:32:47 =35,690  km/h

119  Petr Vakoč  Etixx-Quick Step05h 09' 45"+  00:33:12 =35,642  km/h

120  Maarten Wynants  Lotto NL-Jumbo05h 09' 59"+  00:33:26 =35,615  km/h

121  Antoine Duchesne  Direct Energie05h 10' 52"+  00:34:19 =35,514  km/h

122  Mathew Hayman  ORICA BikeExchange05h 13' 29"+  00:36:56 =35,217  km/h

123  Michael Matthews  ORICA BikeExchange05h 13' 29"+  00:36:56 =35,217  km/h

124  Luke Durbridge  ORICA BikeExchange05h 13' 29"+  00:36:56 =35,217  km/h

125  Pierre-Luc Périchon  Fortuneo-Vital Concept05h 13' 40"+  00:37:07 =35,197  km/h

126  Luke Rowe  Sky Procycling05h 16' 24"+  00:39:51 =34,893  km/h

127  Robert Wagner  Lotto NL-Jumbo05h 16' 24"+  00:39:51 =34,893  km/h

128  Sep Vanmarcke  Lotto NL-Jumbo05h 16' 24"+  00:39:51 =34,893  km/h

129  Dylan Groenewegen  Lotto NL-Jumbo05h 16' 24"+  00:39:51 =34,893  km/h

130  Iljo Keisse  Etixx-Quick Step05h 16' 24"+  00:39:51 =34,893  km/h

131  Fabio Sabatini  Etixx-Quick Step05h 16' 24"+  00:39:51 =34,893  km/h

132  Tsgabu Grmay  Lampre-Merida05h 16' 24"+  00:39:51 =34,893  km/h

133  Rui Costa  Lampre-Merida05h 16' 24"+  00:39:51 =34,893  km/h

134  Matteo Bono  Lampre-Merida05h 16' 24"+  00:39:51 =34,893  km/h

135  Marcel Sieberg  Lotto Soudal05h 16' 24"+  00:39:51 =34,893  km/h

136  Geoffrey Soupe  Cofidis – Solutions Crédits05h 16' 24"+  00:39:51 =34,893  km/h

137  Christophe Laporte  Cofidis – Solutions Crédits05h 16' 24"+  00:39:51 =34,893  km/h

138  Samuel Dumoulin  AG2R La Mondiale05h 16' 24"+  00:39:51 =34,893  km/h

139  Natnael Berhane  Dimension Data05h 16' 24"+  00:39:51 =34,893  km/h

140  Marcel Kittel  Etixx-Quick Step05h 16' 24"+  00:39:51 =34,893  km/h

141  Romain Sicard  Direct Energie05h 16' 24"+  00:39:51 =34,893  km/h

142  Alexis Gougeard  AG2R La Mondiale05h 16' 24"+  00:39:51 =34,893  km/h

143  Lawson Craddock  Cannondale Pro Cycling05h 16' 24"+  00:39:51 =34,893  km/h

144  Julien Vermote  Etixx-Quick Step05h 16' 24"+  00:39:51 =34,893  km/h

145  Oscar Gatto  Tinkoff05h 16' 24"+  00:39:51 =34,893  km/h

146  Alexander Kristoff  Katusha05h 16' 24"+  00:39:51 =34,893  km/h

147  Rubén Plaza  ORICA BikeExchange05h 16' 24"+  00:39:51 =34,893  km/h

148  Eduardo Sepulveda  Fortuneo-Vital Concept05h 16' 24"+  00:39:51 =34,893  km/h

149  Jürgen Roelandts  Lotto Soudal05h 16' 24"+  00:39:51 =34,893  km/h

150  Kristjan Koren  Cannondale Pro Cycling05h 16' 24"+  00:39:51 =34,893  km/h

151  André Greipel  Lotto Soudal05h 16' 24"+  00:39:51 =34,893  km/h

152  Tony Martin  Etixx-Quick Step05h 16' 24"+  00:39:51 =34,893  km/h

153  Maximiliano Richeze  Etixx-Quick Step05h 16' 24"+  00:39:51 =34,893  km/h

154  Lars Bak  Lotto Soudal05h 16' 24"+  00:39:51 =34,893  km/h

155  Maciej Bodnar  Tinkoff05h 16' 24"+  00:39:51 =34,893  km/h

156  Leigh Howard  IAM Cycling05h 16' 24"+  00:39:51 =34,893  km/h

157  Adrien Petit  Direct Energie05h 16' 24"+  00:39:51 =34,893  km/h

158  Nicolas Edet  Cofidis – Solutions Crédits05h 16' 24"+  00:39:51 =34,893  km/h

159  Bryan Coquard  Direct Energie05h 16' 24"+  00:39:51 =34,893  km/h

160  Ramūnas Navardauskas  Cannondale Pro Cycling05h 16' 24"+  00:39:51 =34,893  km/h

161  Yohann Gène  Direct Energie05h 16' 24"+  00:39:51 =34,893  km/h

162  Cyril Lemoine  Cofidis – Solutions Crédits05h 16' 24"+  00:39:51 =34,893  km/h

163  Jacopo Guarnieri  Katusha05h 16' 24"+  00:39:51 =34,893  km/h

164  Ian Stannard  Sky Procycling05h 16' 24"+  00:39:51 =34,893  km/h

165  Paul Voss  Bora-Argon 1805h 16' 24"+  00:39:51 =34,893  km/h

166  Stephen Cummings  Dimension Data05h 16' 24"+  00:39:51 =34,893  km/h

167  John Degenkolb  Giant-Alpecin05h 16' 24"+  00:39:51 =34,893  km/h

168  Davide Cimolai  Lampre-Merida05h 16' 24"+  00:39:51 =34,893  km/h

169  Bernhard Eisel  Dimension Data05h 16' 24"+  00:39:51 =34,893  km/h

170  Sam Bennett  Bora-Argon 1805h 16' 24"+  00:39:51 =34,893  km/h

171  Marco Haller  Katusha05h 16' 24"+  00:39:51 =34,893  km/h

172  Sondre Holst Enger  IAM Cycling05h 16' 24"+  00:39:51 =34,893  km/h

173  Gregory Henderson  Lotto Soudal05h 16' 24"+  00:39:51 =34,893  km/h

174  Shane Archbold  Bora-Argon 1805h 16' 24"+  00:39:51 =34,893  km/h

175  Arnold Jeannesson  Cofidis – Solutions Crédits05h 16' 24"+  00:39:51 =34,893  km/h

176  Jérôme Cousin  Cofidis – Solutions Crédits05h 16' 24"+  00:39:51 =34,893  km/h

177  Armindo Fonseca  Fortuneo-Vital Concept05h 17' 49"+  00:41:16 =34,737  km/h

178  Daniel McLay  Fortuneo-Vital Concept05h 17' 49"+  00:41:16 =34,737  km/h

179  Vegard Breen  Fortuneo-Vital Concept05h 17' 52"+  00:41:19 =34,732  km/h


Withdrawls: 4
 RiderTeamReason
95   Rohan Dennis BMCDid not start
101   Mark Cavendish Dimension DataDid not start
16   Gorka Izagirre MovistarDid not finish
192   Borut Božič Cofidis – Solutions CréditsDid not finish
Todays birthdays.

1888 • Giuseppe Contesini
1911 • Edmond Pages
1935 • Eddy Pauwels
1940 • Julien Haelterman
1958 • Luc Colijn
1962 • Jean-François Bernard
1984 • Yann Huguet
1993 • Owain Doull

 

Optimized for Chrome - Edge
and Opera browsers.